Location: Fargues
(44.5367°N, 0.2969°W)
Time: 22:10:02
(UTC+00:00)

Daily predictions for brighter satellites

Satellite Brightness Start Highest point End
(mag) Time Altitude Azimuth Time Altitude Azimuth Time Altitude Azimuth
Cosmos 1300 Rocket 4.2 18:14:46 10° SSE 18:18:45 34° E 18:22:47 10° NNE
Sich 1 Rocket 3.7 18:18:34 10° S 18:23:00 62° E 18:27:32 10° NNE
NOSS 2-2 (E) 4.2 18:20:13 10° WSW 18:23:38 47° NW 18:27:29 10° NNE
Cosmos 1943 4.3 18:18:13 10° NW 18:23:39 50° WSW 18:29:06 10° S
Cosmos 2298 Rocket 4.3 18:19:52 10° S 18:24:58 49° ESE 18:30:07 10° NNE
CENTAUR R/B 3.5 18:17:31 10° NNW 18:25:12 49° NE 18:33:38 10° ESE
Cosmos 1975 3.9 18:22:17 10° SSW 18:26:17 53° WNW 18:30:17 10° N
Cosmos 1437 4.0 18:24:28 10° NNW 18:27:20 43° W 18:30:11 10° S
Iridium 4 Rocket 3.9 18:22:16 10° S 18:27:24 77° W 18:33:03 10° N
CSL-04 Debris 4.4 18:24:40 10° SE 18:29:52 51° ENE 18:35:05 10° N
Helios 1A Rocket 3.5 18:27:32 10° S 18:31:37 64° WSW 18:35:45 10° NNW
CSL-04 Rocket 3.9 18:26:35 10° SE 18:31:49 51° ENE 18:37:10 10° N
ATLAS 2AS CENTAUR R/B 3.8 18:26:23 10° SSE 18:32:52 29° ESE 18:39:23 10° NE
Okean 2 Rocket 3.3 18:28:55 10° SSE 18:33:14 50° E 18:37:34 10° NNE
NOSS 2-2 (D) 4.1 18:30:06 10° WSW 18:33:30 47° NW 18:37:17 10° NNE
YAOGAN 1 2.5 18:30:04 10° SSE 18:34:22 73° ENE 18:38:42 10° N
Cosmos 1025 Rocket 3.3 18:30:46 10° N 18:35:01 46° ENE 18:39:14 10° SSE
ATLAS 3B R/B 4.0 18:31:32 10° NNW 18:37:00 25° NNE 18:42:35 10° E
SKYMED 2 4.5 18:34:50 10° N 18:39:05 54° WNW 18:43:18 10° SSW
Abrixas rocket 2.4 18:37:12 10° WNW 18:39:57 46° NNE 18:42:11 14° E
Cosmos 1513 Rocket 4.5 18:34:34 10° S 18:40:44 66° E 18:46:50 10° NNE
CREW DRAGON DEMO-1 DEB 3.7 18:39:11 10° NW 18:42:03 37° NNE 18:44:16 15° E
Cosmos 1536 Rocket 3.9 18:40:31 10° N 18:44:48 44° ENE 18:49:04 10° SSE
Cosmos 1125 Rocket 3.8 18:40:36 10° S 18:45:37 46° ESE 18:50:42 10° NNE
SJ-6B 4.3 18:48:32 15° E 18:49:53 18° ENE 18:52:27 10° NNE
CZ-2D R/B 4.5 18:48:11 10° S 18:51:56 46° W 18:55:42 10° NNW
CZ-4 R/B 2.1 18:47:49 10° S 18:51:58 60° W 18:56:07 10° NNW
Cosmos 2150 Rocket 4.0 18:47:07 10° SSW 18:52:30 79° ESE 18:57:59 10° NNE
SJ-11-01 4.2 18:48:21 10° SSE 18:53:01 68° ENE 18:57:41 10° N
CZ-2C R/B 3.2 18:48:42 10° SSE 18:54:03 86° ENE 18:59:44 10° NNW
Cosmos 1464 Rocket 3.9 18:47:58 10° S 18:54:04 79° E 19:00:17 10° N
USA 238 DEB 3.9 18:47:28 10° NW 18:54:44 84° NE 19:02:17 10° SE
USA 238 3.9 18:47:35 10° NW 18:54:51 84° NE 19:02:23 10° SE
Okean-O 3.7 18:51:33 10° S 18:55:50 49° W 19:00:10 10° NNW
Cosmos 2285 Rocket 4.2 18:50:19 10° S 18:56:18 48° ESE 19:02:22 10° NNE
Cosmos 1674 3.3 18:53:34 10° N 18:57:10 36° ENE 19:00:17 13° SE
Cosmos 1092 Rocket 4.5 18:52:25 10° N 18:58:08 38° ENE 19:03:51 10° SE
MOS 1 Rocket 3.0 18:59:42 10° NNE 19:04:03 62° E 19:08:16 10° S
TSX-5 4.5 19:04:08 10° S 19:07:32 34° ESE 19:11:43 10° NE
ARGOS 3.1 19:04:22 10° SSE 19:09:40 69° ENE 19:15:02 10° N
In-Cosmos 22 4.3 19:06:07 10° NNW 19:11:26 76° W 19:16:50 10° S
Cosmos 1048 Rocket 4.2 19:07:11 10° NNW 19:12:32 79° WSW 19:17:54 10° SSE
CZ-2C R/B 3.1 19:09:05 10° NNE 19:14:20 40° E 19:19:35 10° SSE
Cosmos 1733 3.9 19:13:47 24° SE 19:15:11 32° E 19:18:38 10° NNE
Cosmos 2151 Rocket 3.7 19:11:26 10° S 19:15:53 80° W 19:20:25 10° N
HJ-1C 3.8 19:13:25 10° S 19:16:39 60° W 19:19:57 10° NNW
Lacrosse 5 rocket 3.7 19:14:59 10° NNW 19:17:51 17° N 19:20:43 10° NE
NOSS 3-2 (A) 4.4 19:11:37 10° NW 19:19:12 70° WSW 19:27:40 10° SSE
Cosmos 2082 Rocket 3.8 19:16:01 10° N 19:19:47 18° NE 19:21:17 16° ENE
Shenzhou-11 Module 3.3 19:19:38 10° SW 19:20:33 19° SSW 19:20:33 19° SSW
BREEZE-M DEB (TANK) 3.2 19:18:59 10° WNW 19:22:07 68° SSW 19:27:36 20° SE
BREEZE-M R/B 4.2 19:09:28 10° WSW 19:22:18 84° NNW 19:24:25 24° ENE
DMSP B5D2-2 4.4 19:19:11 10° NNE 19:24:10 41° E 19:29:06 10° SSE
Cosmos 494 Rocket 3.9 19:20:03 10° NNW 19:25:21 88° ENE 19:29:53 14° SSE
Meteor 1-15 Rocket 4.2 19:20:53 10° S 19:26:31 82° E 19:32:18 10° NNE
ATLAS 5 CENTAUR R/B 4.5 19:23:21 10° WNW 19:26:52 31° SW 19:36:22 10° SSE
Cosmos 1805 3.1 19:23:10 10° S 19:27:01 66° E 19:30:55 10° NNE
OBJECT-B 2.7 19:28:48 18° NE 19:28:48 18° NE 19:30:08 10° NNE
Milstar 3 Cent rocket 4.0 19:26:12 10° SW 19:30:38 17° S 19:32:39 14° SSE
Ariane Rocket 2.9 19:28:06 20° SSE 19:31:33 65° ENE 19:36:36 10° N
SL-08 RB Rocket 3.6 19:27:52 15° SSE 19:31:36 79° ENE 19:36:09 10° N
H-2A R/B 2.6 19:28:07 10° S 19:33:01 56° W 19:38:04 10° NNW
USA 234 4.3 19:38:13 23° SE 19:38:13 23° SE 19:41:58 10° S
Cosmos 1269 Rocket 4.0 19:31:59 10° NNW 19:37:17 63° ENE 19:39:33 33° SE
Nadezhda 4 Rocket 4.2 19:32:37 10° NNW 19:38:42 69° W 19:44:46 10° S
KORONAS-FOTON 4.0 19:34:49 10° NNW 19:38:44 72° W 19:41:31 18° S
Cosmos 1626 2.4 19:38:52 10° N 19:42:02 47° NE 19:42:02 47° NE
MetOp-A 4.1 19:40:20 29° SE 19:43:04 66° ENE 19:48:24 10° N
USA 186 1.8 19:42:34 57° SSW 19:43:07 76° W 19:46:26 10° NNW
Cosmos 1844 Rocket 3.7 19:40:09 10° SW 19:45:29 46° WNW 19:50:54 10° NNE
COSMOS 2406 3.4 19:40:50 10° NNW 19:46:24 53° ENE 19:47:55 41° ESE
ISS -1.9 19:44:14 10° WNW 19:47:03 24° N 19:47:46 22° NNE
Cosmos 2278 Rocket 3.1 19:44:19 10° S 19:51:32 31° ENE 19:54:50 10° NE
IRS-1A Rocket 4.3 19:47:47 18° SSE 19:52:20 86° WSW 19:58:13 10° NNW
Lacrosse 4 Rocket 3.0 19:50:24 10° N 19:52:52 21° NNE 19:52:52 21° NNE
Meteor 1-22 Rocket 4.2 19:48:32 10° S 19:54:23 71° E 20:00:27 10° NNE
Meteor 2-5 Rocket 3.7 19:51:16 10° NNW 19:56:59 84° W 20:00:46 23° S
NOSS 3-2 (C) 4.4 19:49:55 10° NW 19:57:28 64° WSW 20:03:38 20° SSE
Exosat Rocket 4.1 19:52:15 10° SW 19:57:35 58° WNW 20:02:32 10° NNE
Meteor 1-24 Rocket 3.6 19:53:42 10° N 19:59:19 80° E 20:01:37 38° SSE
Okean 1 Rocket 3.6 19:55:12 10° SSW 19:59:38 60° W 20:04:05 10° N
NOSS 3-4 (A) 3.3 19:54:41 10° SW 20:00:35 85° NW 20:06:55 10° NE
NOSS 3-4 (C) 3.3 19:54:47 10° SW 20:00:41 85° NW 20:07:02 10° NE
Resurs 01 Rocket 2.6 20:03:26 34° NE 20:03:26 34° NE 20:06:30 10° N
SL-14 R/B 3.4 19:58:30 10° N 20:01:55 63° NNE 20:01:55 63° NNE
Cosmos 1766 4.2 20:05:03 10° SSW 20:08:51 48° WNW 20:12:42 10° N
Cosmos 1833 Rocket 2.6 20:05:54 10° NNW 20:11:31 62° ENE 20:11:54 60° E
Cosmos 2251 Rocket 4.3 20:09:24 10° N 20:13:44 37° NE 20:13:44 37° NE
CENTAUR R/B 3.7 20:08:17 10° NW 20:16:15 55° WSW 20:22:00 22° S
ARIANE 5 R/B 4.4 20:20:05 21° NNE 20:20:05 21° NNE 20:21:48 10° N
SPOT 3 Rocket 3.4 20:20:50 82° E 20:20:54 82° ENE 20:26:05 10° NNW
Cosmos 1634 Rocket 4.2 20:16:45 10° SSW 20:22:52 68° W 20:29:05 10° N
ATLAS 2AS CENTAUR R/B 3.2 20:15:20 10° SW 20:23:17 75° NW 20:31:12 10° NE
SJ-6B 4.1 20:24:09 35° WSW 20:24:16 35° W 20:27:46 10° NNW
Resurs 1-3 4.0 20:26:18 61° NW 20:26:18 61° NW 20:30:01 10° NNW
ATLAS 3B R/B 2.6 20:21:51 10° NW 20:28:46 78° NE 20:29:50 65° ESE
Cosmos 1892 Rocket 4.2 20:25:14 10° NNW 20:28:35 51° NNW 20:28:35 51° NNW
Cosmos 1655 Rocket 4.0 20:32:01 10° N 20:37:50 66° NE 20:37:50 66° NE
CZ-2C R/B 4.4 20:49:36 10° N 20:54:28 32° WNW 20:59:22 10° SW
Lacrosse 5 rocket 3.6 20:54:06 10° NW 20:56:20 24° NNW 20:56:20 24° NNW
Cosmos 2279 Rocket 4.4 20:57:29 42° SW 20:59:22 58° WNW 21:05:34 10° N
OBJECT-B 4.3 21:02:00 11° NW 21:02:00 11° NW 21:02:11 10° NW
Cosmos 2098 Rocket 4.2 20:56:06 10° N 21:01:45 63° NNW 21:01:45 63° NNW
Cosmos 2082 Rocket 2.9 20:59:01 10° NNW 21:03:08 50° NNW 21:03:08 50° NNW
Terra 4.4 21:21:44 14° N 21:21:44 14° N 21:22:28 10° N
Lacrosse 4 Rocket 4.4 21:28:38 10° NW 21:29:10 13° NW 21:29:10 13° NW
Cosmos 2278 Rocket 3.7 21:28:38 10° WSW 21:33:43 33° NW 21:38:50 10° N
Resurs 01 Rocket 4.4 21:41:00 16° WNW 21:41:00 16° WNW 21:42:22 10° NW
